Simultaneous Nadir Overpasses (SNOs) Predictions

Prediction of SNOs between GOES-14 and NPP Satellite Orbit:

Table of predicted SNOs for the next 14.0 days since TLE Epoch: 9/18/2020
Index Date Time (GOES-14) GOES-14 Lat,Lon NPP Lat,Lon Distance(km) Time Diff (sec)
1 09/19/2020 20:11:08 -0.35,-104.48 0.37,-101.18 374.52 80
2 09/21/2020 08:32:57 0.33,-104.41 0.81,-106.46 233.48 80
3 09/22/2020 08:11:32 0.34,-104.40 -0.20,-101.92 281.69 80
4 09/23/2020 20:33:30 -0.32,-104.44 -0.95,-107.23 318.48 80
5 09/24/2020 20:17:25 -0.32,-104.45 0.06,-102.70 198.59 80
6 09/26/2020 08:39:13 0.30,-104.41 1.11,-107.97 406.09 80
7 09/27/2020 08:17:49 0.31,-104.40 0.11,-103.44 109.21 80
8 09/28/2020 20:39:46 -0.28,-104.42 -1.25,-108.75 494.13 80
9 09/29/2020 20:23:42 -0.29,-104.42 -0.24,-104.22 23.46 80
10 10/02/2020 08:26:46 0.28,-104.42 0.41,-104.96 60.99 80
